Location: Munkebjergskolens Observatorium
(55.3864°N, 10.3987°E)
Time: 05:15:20
(UTC+02:00)

ISS - Visible Passes

Search period start: 18 July 2018 00:00
Search period end: 28 July 2018 00:00
Orbit: 402 x 408 km, 51.6° (Epoch: 18 July)

Date Brightness Start Highest point End Pass type
(mag) Time Alt. Az. Time Alt. Az. Time Alt. Az.
18 Jul -2.8 00:50:11 26° SSE 00:50:28 26° SSE 00:53:18 10° E visible
18 Jul -3.5 02:23:24 10° WSW 02:26:33 43° S 02:29:44 10° ESE visible
18 Jul -3.0 03:59:44 10° W 04:02:41 30° SSW 04:05:38 10° SE visible
18 Jul -2.5 23:58:10 20° SSE 23:58:34 20° SSE 00:01:04 10° ESE visible
19 Jul -3.4 01:31:26 10° WSW 01:34:33 40° S 01:37:41 10° ESE visible
19 Jul -3.3 03:07:38 10° W 03:10:43 37° SSW 03:13:47 10° ESE visible
19 Jul -2.1 23:04:45 10° S 23:06:41 15° SSE 23:08:37 10° ESE visible
20 Jul -3.3 00:39:31 10° SW 00:42:33 35° SSE 00:45:36 10° E visible
20 Jul -3.5 02:15:33 10° WSW 02:18:42 41° S 02:21:50 10° ESE visible
20 Jul -2.5 03:52:06 10° WSW 03:54:43 22° SSW 03:57:20 10° SSE visible
20 Jul -3.0 23:47:40 10° SW 23:50:33 29° SSE 23:53:28 10° E visible
21 Jul -3.5 01:23:31 10° WSW 01:26:40 43° S 01:29:49 10° ESE visible
21 Jul -2.9 02:59:53 10° W 03:02:46 28° SSW 03:05:39 10° SE visible
21 Jul -2.6 22:55:57 10° SSW 22:58:36 22° SSE 23:01:14 10° ESE visible
22 Jul -3.5 00:31:29 10° WSW 00:34:37 42° S 00:37:45 10° ESE visible
22 Jul -3.2 02:07:44 10° W 02:10:46 34° SSW 02:13:48 10° SE visible
22 Jul -2.0 03:44:47 10° WSW 03:46:37 14° SSW 03:48:27 10° S visible
22 Jul -3.3 23:39:30 10° WSW 23:42:34 37° SSE 23:45:39 10° E visible
23 Jul -3.4 01:15:36 10° W 01:18:44 40° S 01:20:44 18° SE visible
23 Jul -1.9 02:52:15 10° WSW 02:53:14 15° WSW 02:53:14 15° WSW visible
23 Jul -3.0 22:47:35 10° SW 22:50:32 31° SSE 22:53:30 10° E visible
24 Jul -3.5 00:23:31 10° WSW 00:26:40 43° S 00:29:01 16° ESE visible
24 Jul -2.3 01:59:56 10° W 02:01:36 21° SW 02:01:36 21° SW visible
24 Jul -3.5 23:31:26 10° WSW 23:34:34 43° S 23:37:43 10° ESE visible
25 Jul -3.1 01:07:43 10° W 01:10:36 32° SSW 01:10:36 32° SSW visible
25 Jul -3.3 22:39:23 10° WSW 22:42:28 39° S 22:45:35 10° E visible
26 Jul -3.3 00:15:33 10° W 00:18:38 38° S 00:19:48 27° SE visible
26 Jul -1.3 01:52:18 10° WSW 01:52:25 11° WSW 01:52:25 11° WSW visible
26 Jul -3.4 23:23:24 10° WSW 23:26:32 42° S 23:29:05 14° ESE visible
27 Jul -2.2 00:59:53 10° W 01:01:42 21° SW 01:01:42 21° SW visible
27 Jul -3.4 22:31:16 10° WSW 22:34:24 43° S 22:37:33 10° ESE visible
